Wetbulb
50.97 51.04 51.17 51.15 51.41 51.58 51.82 51.92 51.71 51.52 51.60 52.09 52.36 52.23 52.21 52.69 52.15 47.61 44.29 49.93 52.07 56.64 54.22 46.06 45.63 45.69 41.82 39.66 38.93 35.82 30.38 27.68 29.80 31.22 34.08 37.03 37.29 39.78 39.78 38.82 47.95 53.20 51.59 55.67 60.54
50.32 50.52 50.50 50.78 50.84 51.29 51.06 51.14 51.05 51.15 51.38 51.44 51.84 51.88 51.83 52.20 44.46 41.37 49.70 53.59 55.58 54.99 45.12 43.06 41.52 43.55 38.55 37.62 37.51 33.82 28.70 31.05 34.44 32.84 33.07 37.08 35.28 37.66 38.15 37.79 38.46 48.56 55.69 58.35 60.58
49.45 49.58 49.93 50.21 50.25 50.41 50.60 50.75 50.67 50.91 51.19 51.29 51.45 51.57 51.42 48.36 41.74 41.60 51.27 51.86 53.42 51.45 46.29 44.37 43.39 42.73 36.82 36.18 35.12 32.71 29.81 32.48 35.43 36.69 38.62 37.63 37.11 36.79 35.57 36.53 38.30 39.23 51.54 57.90 59.23
49.37 49.20 49.46 49.57 49.83 50.27 50.31 50.42 50.58 50.95 50.98 51.08 51.20 50.72 50.80 42.74 29.53 43.01 50.06 50.75 50.37 47.93 45.30 42.49 41.16 37.16 34.58 33.38 38.15 32.03 35.65 35.55 37.79 38.53 37.30 36.32 37.75 36.71 37.74 38.98 40.82 38.54 54.33 57.91 57.45
48.80 48.72 49.00 49.33 49.44 49.66 49.87 50.40 50.41 50.28 50.13 50.51 50.44 50.51 42.47 34.84 35.40 45.03 48.06 46.38 43.48 43.13 42.20 39.93 37.22 35.68 32.63 35.48 36.88 32.52 34.96 38.30 39.02 37.67 36.99 38.25 36.23 36.78 35.61 39.18 40.51 40.51 55.67 56.81 57.22
48.55 48.61 48.02 48.68 48.84 49.29 49.84 50.00 49.33 49.71 49.76 49.87 50.08 49.23 37.50 26.78 41.79 42.39 40.53 41.35 39.94 39.28 39.25 40.26 37.68 38.51 34.58 34.78 34.30 35.30 36.24 35.29 36.15 36.19 36.51 36.14 37.41 35.24 37.68 38.20 38.71 39.18 49.40 54.89 56.92
48.24 48.10 48.11 48.26 48.50 48.89 49.72 49.12 48.78 49.69 49.05 48.58 49.98 44.78 34.60 31.50 40.43 39.70 39.22 37.95 38.20 39.32 36.12 40.08 39.10 36.96 36.02 31.88 36.99 35.43 30.60 31.26 31.82 33.99 34.13 35.53 32.13 32.62 38.43 37.69 38.24 38.59 38.96 50.65 55.79
47.79 47.46 47.38 47.95 48.19 48.95 48.81 47.85 48.21 48.36 47.83 48.32 49.15 40.15 32.38 42.06 41.16 39.81 38.36 37.14 38.32 40.06 39.15 38.88 38.48 38.51 35.80 36.35 35.25 31.86 27.33 22.48 29.14 33.69 33.57 33.34 26.23 34.97 36.52 35.00 36.03 36.87 36.74 38.54 48.96
47.10 46.78 47.22 47.43 47.88 48.26 47.33 47.24 47.10 46.94 47.58 45.79 37.17 34.77 28.82 42.51 36.69 38.44 36.44 34.53 35.78 36.43 37.58 42.01 40.23 32.30 28.38 23.12 23.29 22.47 17.60 20.59 24.25 31.55 30.49 30.44 26.30 33.39 38.12 37.54 36.05 36.25 37.19 36.89 38.43
46.18 46.59 46.75 47.10 47.85 47.08 46.39 45.36 45.47 42.74 40.32 39.53 37.86 29.76 33.43 31.34 35.72 37.18 36.86 36.32 33.13 31.67 31.21 30.26 27.35 21.51 22.26 19.78 11.74 15.17 14.84 19.25 18.42 25.73 27.92 26.84 27.10 32.69 35.75 36.11 36.09 36.97 37.95 38.67 36.48
46.12 46.03 46.30 46.81 47.24 46.59 42.20 35.15 31.34 29.08 31.64 28.85 28.67 28.92 31.66 35.48 37.97 34.09 35.71 33.12 31.53 27.76 21.48 24.87 20.67 16.65 17.95 20.15 19.77 18.80 16.81 15.75 19.85 25.12 23.12 24.29 23.92 27.74 32.48 33.92 33.58 34.77 37.15 38.10 38.91
45.60 45.76 46.17 46.57 46.75 45.67 40.45 33.32 34.41 32.53 24.46 31.87 32.12 32.42 34.73 34.98 29.24 32.15 35.16 27.55 26.30 21.32 23.06 21.00 17.66 20.73 23.77 22.89 21.83 20.40 18.05 15.93 20.25 24.75 23.11 21.30 20.36 25.58 28.14 29.37 32.32 34.10 35.62 38.21 39.04
45.46 45.49 45.65 46.19 45.61 39.68 36.44 35.82 39.54 34.81 22.52 28.84 32.57 32.36 33.52 33.26 28.17 28.78 31.52 27.47 23.33 21.25 19.64 18.48 20.59 24.66 22.95 21.23 20.04 20.08 18.13 17.37 17.77 22.60 23.20 20.32 17.90 23.12 29.37 31.36 33.33 35.08 37.07 38.95 40.03
45.20 45.29 45.46 45.93 37.10 36.24 33.90 39.38 39.67 33.68 10.67 23.13 28.19 30.58 31.55 31.01 26.35 32.86 32.86 27.48 24.23 20.11 20.76 19.58 23.32 22.44 21.04 20.59 20.64 16.49 22.72 21.04 19.89 17.54 12.70 20.46 7.85 20.64 25.51 28.58 31.87 33.85 35.76 37.31 38.93
44.99 44.95 45.23 44.90 35.20 33.69 37.26 39.56 38.16 29.77 -1.42 23.51 26.84 35.54 31.22 26.60 26.83 27.78 32.06 27.96 20.82 21.97 20.82 18.73 19.68 19.80 19.11 20.64 21.98 19.00 23.46 20.89 19.63 16.98 15.76 16.43 11.97 17.80 24.99 24.70 28.58 31.97 34.23 36.45 37.65
44.45 44.48 44.53 38.94 35.35 36.87 39.14 36.47 30.73 9.63 -5.09 19.03 25.72 24.38 23.78 25.57 25.45 26.91 26.46 27.96 26.29 21.81 22.26 20.53 23.18 21.91 21.42 23.40 22.93 23.71 20.92 20.09 19.22 17.36 8.72 17.16 14.09 15.01 19.26 24.37 27.67 31.76 34.24 36.11 37.29
43.76 44.24 41.50 39.63 32.94 38.68 35.06 27.09 9.72 1.17 17.38 17.95 20.33 23.40 22.28 20.90 22.29 23.30 20.73 18.32 15.81 5.79 11.26 18.90 19.73 22.77 23.73 19.19 22.59 21.76 15.45 -1.23 -2.17 2.63 3.79 18.34 16.37 18.76 25.46 28.74 30.18 30.81 33.23 35.58 37.48
43.20 42.01 39.51 39.43 37.97 35.73 27.17 15.24 1.59 5.48 16.37 24.13 22.08 22.13 17.70 20.71 19.97 20.06 18.04 13.48 19.69 17.17 7.63 7.16 2.35 18.91 23.96 19.93 16.80 18.24 16.75 6.69 0.85 3.72 8.55 18.75 12.46 19.49 28.31 31.40 32.93 33.77 34.29 35.65 37.71
41.22 34.02 34.20 37.58 38.80 30.82 19.93 6.80 7.32 14.82 22.48 20.32 18.61 14.84 13.50 20.00 17.58 16.50 14.33 14.13 18.86 19.86 4.95 7.41 11.09 21.67 23.55 23.24 21.50 18.56 13.78 21.62 14.70 14.00 10.06 13.55 17.98 25.05 29.05 29.67 31.41 32.05 34.31 35.06 37.45
30.42 29.65 32.61 37.29 35.15 26.08 16.30 12.13 12.63 23.99 24.27 22.78 12.57 12.89 11.65 14.63 11.95 11.68 11.89 18.01 19.05 22.52 20.78 9.28 5.71 19.30 22.40 23.47 22.97 20.10 23.39 13.92 15.90 5.81 6.00 12.40 15.13 18.32 24.24 26.37 29.41 31.61 33.99 34.58 37.49
26.25 20.87 31.88 36.20 30.56 21.50 7.44 1.14 19.75 26.29 25.45 16.66 15.41 16.61 12.67 10.23 12.39 11.76 14.10 18.63 19.18 20.17 22.44 17.57 11.68 13.52 19.09 14.62 14.88 16.86 16.29 18.05 17.68 14.50 8.71 4.26 11.37 24.40 24.97 27.46 29.09 31.50 34.08 34.97 36.63
18.64 13.14 31.54 31.93 17.95 -0.94 5.75 8.30 26.22 24.12 25.46 21.60 17.63 15.03 17.15 15.03 6.25 5.50 13.22 12.42 19.37 21.13 12.68 21.51 9.02 6.26 11.88 20.06 20.84 15.52 14.87 18.24 9.98 5.75 11.29 11.47 10.72 27.32 28.12 29.00 30.01 31.68 34.26 36.87 37.69
13.12 11.81 29.26 27.79 8.91 4.46 9.85 9.81 18.60 21.69 22.30 22.13 17.10 19.98 11.27 17.78 13.82 8.48 5.65 15.69 16.56 13.86 8.58 16.55 5.92 -1.89 0.61 12.18 18.10 10.41 17.14 19.08 18.10 16.38 10.13 8.11 11.21 28.62 28.45 27.90 28.58 28.64 31.29 36.72 36.89
14.69 10.71 16.40 15.21 17.45 10.87 6.10 9.91 9.93 21.83 21.11 23.75 22.75 23.05 17.23 10.82 15.92 14.66 16.51 17.83 23.52 19.28 26.76 24.55 16.23 3.92 4.56 9.16 15.14 11.18 14.98 16.98 16.15 9.93 11.28 13.66 16.66 22.70 24.95 24.98 26.60 29.82 30.90 35.34 34.55
15.16 9.33 12.60 6.82 9.46 7.27 14.42 4.67 11.50 11.16 20.47 21.07 12.99 15.86 12.06 12.14 13.14 10.74 16.07 14.96 19.65 24.68 19.28 16.73 10.43 3.97 11.66 15.19 15.26 13.98 14.02 14.43 12.55 15.26 11.91 17.43 18.59 22.40 24.44 25.85 27.19 32.83 33.83 34.37 33.08
14.49 13.01 11.41 5.89 18.07 12.66 16.39 9.84 13.51 15.05 13.27 13.65 15.09 19.45 17.30 9.84 13.95 13.67 16.50 17.42 16.74 19.72 13.77 8.90 12.15 7.31 9.32 14.11 12.05 10.36 13.90 14.86 15.45 18.90 17.58 19.50 18.72 25.74 26.75 28.15 30.02 29.71 28.79 29.04 29.81
25.82 24.74 20.07 14.36 3.54 6.50 8.45 15.83 17.82 19.96 19.83 22.27 19.20 17.88 15.90 17.99 21.30 20.44 22.20 21.99 21.37 18.81 17.14 12.12 12.40 3.67 5.90 5.78 1.11 3.04 8.84 14.93 17.52 21.03 16.85 14.53 21.12 25.63 23.95 25.48 29.19 29.15 29.55 27.55 27.93
MSLP
1025.56 1025.14 1024.64 1024.21 1023.59 1022.94 1022.43 1021.96 1021.58 1021.18 1020.74 1020.23 1019.65 1019.21 1018.82 1018.36 1017.83 1017.05 1017.22 1017.99 1017.10 1016.26 1015.64 1015.19 1014.39 1014.22 1013.93 1014.10 1014.18 1014.49 1015.43 1015.62 1014.63 1013.85 1012.63 1011.71 1011.24 1010.29 1009.93 1009.88 1009.65 1010.01 1010.06 1010.08 1010.16
1025.81 1025.32 1024.82 1024.29 1023.76 1023.05 1022.60 1022.08 1021.57 1021.07 1020.68 1020.16 1019.57 1019.05 1018.64 1018.32 1018.42 1018.14 1018.72 1017.88 1017.08 1016.42 1016.06 1015.85 1015.44 1014.97 1014.78 1014.63 1014.61 1014.94 1015.48 1015.00 1014.08 1013.45 1012.96 1012.24 1011.82 1011.45 1010.70 1010.45 1010.08 1010.24 1010.38 1010.32 1010.43
1026.14 1025.59 1025.04 1024.45 1023.91 1023.27 1022.70 1022.10 1021.50 1020.96 1020.48 1020.00 1019.42 1018.98 1018.58 1018.30 1018.58 1019.23 1018.61 1018.04 1017.34 1016.70 1016.35 1016.16 1015.74 1015.58 1015.53 1015.29 1015.32 1015.45 1015.47 1014.91 1014.17 1013.86 1013.58 1012.91 1012.33 1011.62 1011.39 1010.94 1010.31 1010.39 1010.71 1011.00 1010.99
1026.06 1025.59 1025.03 1024.39 1023.88 1023.10 1022.58 1021.99 1021.42 1020.73 1020.34 1019.89 1019.36 1018.99 1018.51 1018.44 1020.01 1019.44 1018.75 1018.05 1017.43 1016.87 1016.52 1016.34 1016.23 1016.38 1016.49 1016.52 1016.36 1016.23 1015.65 1015.72 1015.06 1014.69 1014.48 1013.68 1012.78 1011.96 1011.60 1010.83 1010.35 1010.39 1010.50 1010.95 1011.16
1026.31 1025.79 1025.22 1024.46 1023.94 1023.17 1022.55 1021.94 1021.38 1020.60 1020.04 1019.72 1019.32 1018.98 1018.81 1019.47 1020.52 1019.64 1018.94 1018.18 1017.56 1017.33 1017.28 1017.20 1017.23 1017.48 1017.56 1017.56 1017.12 1016.90 1016.72 1016.27 1015.79 1015.14 1014.76 1013.73 1013.01 1012.47 1011.70 1011.05 1010.75 1010.68 1010.83 1010.87 1010.91
1026.49 1025.84 1025.26 1024.55 1023.87 1023.08 1022.40 1021.77 1021.24 1020.30 1019.75 1019.64 1019.37 1018.95 1019.29 1020.57 1020.46 1020.04 1019.30 1018.40 1018.14 1017.82 1017.79 1017.72 1017.89 1017.88 1018.07 1018.06 1018.25 1017.94 1017.46 1016.81 1016.13 1015.33 1014.74 1014.26 1012.78 1012.79 1011.63 1011.10 1011.02 1011.03 1010.86 1010.59 1010.36
1026.63 1026.15 1025.61 1024.88 1024.03 1023.19 1022.45 1021.82 1020.92 1020.10 1019.81 1019.72 1019.51 1019.61 1019.99 1021.22 1020.73 1020.14 1019.50 1018.92 1018.41 1018.19 1018.03 1018.02 1018.10 1018.20 1018.57 1018.69 1018.55 1018.28 1018.17 1017.41 1016.51 1016.42 1015.31 1014.41 1013.11 1012.49 1011.69 1011.37 1010.96 1010.90 1010.65 1010.26 1009.99
1027.09 1026.47 1025.86 1025.12 1024.27 1023.36 1022.54 1021.63 1020.80 1020.37 1019.93 1019.73 1019.68 1019.98 1021.08 1020.99 1020.58 1020.05 1019.74 1018.91 1018.25 1018.01 1018.16 1017.99 1018.20 1018.63 1019.43 1019.43 1019.21 1019.46 1019.31 1019.18 1017.82 1017.42 1016.14 1016.00 1013.85 1012.85 1012.39 1012.46 1011.89 1011.08 1010.58 1010.39 1009.72
1027.33 1026.72 1026.15 1025.32 1024.35 1023.23 1022.38 1021.38 1020.99 1020.40 1019.96 1019.88 1020.22 1020.58 1021.62 1020.98 1020.85 1020.90 1020.54 1020.10 1019.20 1018.66 1018.38 1018.21 1018.60 1020.25 1020.95 1021.01 1021.23 1021.96 1022.18 1021.55 1020.33 1019.25 1019.01 1017.99 1015.19 1014.30 1012.97 1012.40 1012.03 1011.29 1010.50 1010.06 1009.42
1027.55 1026.99 1026.25 1025.61 1024.61 1023.69 1022.32 1021.66 1021.38 1020.79 1020.78 1020.52 1021.16 1021.75 1022.27 1022.47 1021.92 1021.64 1020.73 1020.41 1020.24 1019.48 1019.50 1020.04 1021.07 1022.32 1022.97 1022.85 1024.23 1024.31 1023.86 1022.81 1022.30 1020.77 1019.40 1018.55 1014.82 1014.68 1014.05 1013.00 1011.88 1011.01 1010.12 1009.51 1009.08
1027.83 1027.21 1026.48 1025.88 1025.02 1024.28 1022.70 1022.49 1023.46 1023.04 1023.15 1023.81 1024.02 1023.71 1023.19 1022.66 1022.31 1022.02 1021.35 1021.08 1021.04 1020.96 1021.95 1022.42 1023.15 1024.45 1024.82 1024.89 1025.07 1025.06 1024.67 1023.78 1022.64 1021.71 1020.88 1018.90 1016.00 1014.47 1013.96 1012.72 1011.73 1010.59 1009.88 1008.75 1008.28
1028.04 1027.29 1026.62 1025.93 1025.51 1025.24 1024.71 1025.07 1026.48 1026.80 1025.59 1024.55 1024.19 1023.77 1023.25 1023.10 1022.94 1022.72 1022.07 1022.14 1022.47 1022.82 1023.01 1023.73 1024.50 1025.12 1025.03 1024.94 1024.91 1024.78 1024.42 1023.81 1022.60 1022.16 1021.69 1020.10 1015.83 1012.89 1013.46 1011.29 1010.72 1009.85 1008.47 1008.15 1007.73
1028.20 1027.46 1026.83 1026.01 1025.60 1025.92 1026.16 1026.72 1026.62 1026.43 1026.40 1025.25 1024.56 1024.01 1023.71 1023.49 1023.73 1023.65 1023.26 1023.10 1023.63 1024.07 1024.47 1024.76 1025.51 1025.10 1025.01 1024.95 1024.86 1024.81 1024.50 1024.31 1023.93 1022.48 1021.64 1020.13 1015.83 1012.78 1011.41 1009.86 1009.04 1008.03 1007.34 1007.18 1006.98
1028.38 1027.64 1026.96 1026.10 1026.37 1026.67 1026.67 1026.64 1026.40 1026.35 1027.09 1026.35 1025.20 1024.70 1024.26 1024.02 1024.31 1024.09 1023.74 1024.08 1024.43 1025.11 1025.25 1025.60 1025.34 1025.45 1025.17 1025.15 1025.32 1024.85 1024.67 1024.59 1023.97 1023.55 1022.62 1021.84 1018.57 1013.36 1011.42 1009.65 1008.30 1007.85 1007.50 1006.73 1006.31
1028.51 1027.78 1027.04 1026.72 1027.48 1027.42 1027.49 1026.67 1026.22 1026.55 1027.74 1027.80 1026.45 1025.53 1025.42 1025.62 1026.08 1025.16 1024.82 1024.52 1025.42 1025.86 1026.28 1026.67 1025.91 1025.74 1025.41 1025.40 1025.58 1025.18 1024.69 1024.55 1024.04 1023.57 1023.11 1021.95 1020.96 1012.63 1011.99 1010.29 1008.97 1007.88 1007.20 1006.45 1005.77
1028.75 1027.99 1027.50 1027.36 1027.75 1027.79 1027.11 1026.74 1026.87 1027.96 1029.73 1028.87 1027.69 1027.31 1026.96 1026.89 1026.90 1026.48 1026.11 1025.63 1026.14 1026.71 1027.14 1026.94 1026.35 1026.14 1025.89 1025.67 1025.61 1025.08 1024.96 1024.12 1023.60 1023.63 1023.33 1020.83 1020.09 1013.82 1012.54 1010.93 1009.44 1008.06 1006.90 1006.23 1005.56
1029.05 1028.43 1028.16 1028.05 1028.66 1027.63 1027.17 1027.55 1028.96 1030.38 1031.39 1030.28 1029.32 1028.89 1028.74 1028.66 1028.21 1028.10 1027.94 1027.89 1028.29 1028.65 1028.92 1028.46 1027.41 1026.72 1026.18 1026.02 1025.63 1025.48 1025.44 1025.22 1024.87 1024.17 1022.80 1020.35 1018.38 1014.79 1012.48 1010.35 1009.31 1008.08 1006.94 1005.93 1005.34
1029.22 1028.96 1028.85 1028.70 1028.41 1027.82 1027.93 1029.03 1031.21 1032.89 1031.75 1030.87 1030.35 1029.98 1030.26 1030.22 1029.93 1029.69 1029.55 1029.71 1029.62 1030.07 1030.57 1030.20 1028.94 1027.69 1026.75 1026.80 1026.59 1026.13 1026.28 1026.89 1026.12 1024.51 1022.01 1020.30 1016.98 1013.26 1011.53 1009.72 1008.75 1007.79 1006.74 1005.72 1004.86
1029.46 1029.78 1029.34 1028.69 1028.20 1028.13 1029.06 1031.74 1033.87 1033.20 1032.28 1031.60 1031.23 1031.36 1031.63 1031.52 1031.60 1031.33 1031.19 1030.90 1030.54 1030.85 1031.63 1031.09 1029.87 1028.07 1027.68 1026.87 1026.77 1026.20 1026.35 1026.16 1025.66 1024.08 1022.45 1019.04 1016.08 1013.44 1011.09 1009.25 1008.41 1007.73 1006.72 1005.91 1005.08
1030.60 1030.56 1029.91 1029.14 1028.54 1028.76 1030.61 1033.88 1034.28 1033.19 1032.41 1031.97 1032.33 1032.77 1033.06 1032.99 1033.03 1032.81 1032.32 1031.37 1031.10 1031.25 1031.53 1031.98 1030.79 1028.93 1027.60 1027.01 1026.28 1026.46 1026.37 1025.93 1025.72 1024.09 1021.46 1018.66 1016.31 1013.10 1010.85 1009.67 1008.65 1008.11 1007.54 1006.85 1005.43
1031.48 1031.97 1030.58 1029.62 1029.41 1031.37 1034.60 1035.41 1034.50 1033.27 1032.73 1032.79 1033.05 1033.36 1033.79 1034.21 1034.26 1034.09 1033.16 1031.99 1031.51 1031.40 1031.54 1031.62 1031.79 1030.04 1028.76 1027.66 1026.72 1026.84 1026.47 1026.48 1026.21 1025.09 1022.72 1020.01 1016.83 1012.89 1012.01 1011.28 1009.91 1008.87 1007.98 1007.16 1005.78
1033.30 1033.31 1031.56 1031.03 1032.28 1034.87 1036.58 1036.17 1034.92 1034.00 1033.17 1033.13 1033.43 1033.79 1034.22 1034.64 1035.08 1035.07 1034.08 1032.88 1031.92 1032.08 1032.06 1031.65 1031.72 1030.97 1029.84 1027.46 1026.37 1026.70 1026.79 1026.69 1026.56 1024.86 1023.11 1021.47 1016.46 1013.98 1012.91 1012.24 1010.54 1009.00 1008.12 1006.92 1005.70
1034.93 1035.07 1032.83 1032.59 1035.86 1037.65 1037.61 1037.05 1035.84 1034.70 1033.96 1033.68 1033.81 1034.08 1034.72 1035.15 1035.30 1034.86 1034.33 1032.78 1032.57 1032.61 1032.27 1032.04 1031.91 1031.49 1030.28 1028.71 1027.58 1027.32 1026.90 1026.90 1026.80 1025.73 1022.71 1021.43 1016.83 1014.52 1013.79 1012.94 1011.30 1009.66 1008.14 1006.97 1005.62
1035.77 1036.47 1035.91 1035.94 1037.54 1038.39 1038.56 1037.76 1036.62 1035.18 1034.71 1034.32 1034.19 1034.32 1034.94 1035.13 1034.89 1034.58 1034.34 1033.02 1032.09 1032.09 1031.67 1031.60 1031.84 1031.96 1031.53 1030.10 1028.86 1027.70 1026.50 1026.93 1026.61 1025.13 1022.48 1020.02 1017.63 1015.96 1014.34 1013.45 1010.95 1008.38 1007.71 1007.04 1005.67
1036.47 1038.14 1038.34 1039.21 1038.85 1038.95 1038.69 1038.06 1037.16 1036.09 1035.14 1034.72 1034.67 1034.69 1035.26 1035.15 1034.77 1034.14 1033.42 1032.81 1032.13 1031.18 1031.27 1031.71 1031.84 1031.61 1030.65 1029.88 1028.89 1027.78 1026.47 1025.53 1025.32 1023.71 1022.57 1019.71 1018.25 1016.75 1016.11 1014.11 1011.87 1009.06 1007.97 1007.33 1005.78
1036.97 1037.92 1038.70 1039.26 1038.87 1038.96 1038.42 1037.67 1036.76 1035.97 1035.52 1034.94 1034.65 1034.35 1034.54 1034.52 1033.96 1033.22 1032.88 1032.29 1031.69 1030.92 1031.08 1031.51 1031.10 1031.10 1030.04 1029.70 1028.61 1027.23 1025.72 1024.19 1023.33 1021.82 1021.01 1019.91 1018.15 1017.87 1016.33 1014.26 1012.33 1011.07 1010.22 1007.98 1006.83
1036.77 1037.13 1037.69 1038.51 1038.86 1038.90 1038.16 1037.05 1036.09 1035.58 1034.79 1034.32 1034.07 1034.05 1033.45 1032.85 1032.62 1032.31 1031.79 1031.28 1030.77 1030.48 1030.51 1030.95 1030.81 1031.02 1028.79 1029.33 1028.57 1026.30 1023.92 1022.76 1021.78 1020.78 1020.49 1019.56 1018.63 1017.20 1015.90 1014.32 1012.57 1011.23 1010.79 1009.23 1007.10
Wind_Speed
20 20 20 21 21 21 22 22 22 22 21 21 21 20 19 17 13 16 14 15 16 20 17 11 6 9 2 3 1 4 4 3 5 4 5 3 7 6 4 3 4 3 1 3 14
20 20 21 21 21 22 23 23 23 22 22 21 21 20 18 16 1 18 16 21 18 21 8 9 9 9 4 3 3 3 4 9 5 3 3 6 2 7 6 7 4 2 3 5 14
20 21 21 21 23 22 22 23 23 23 22 22 20 19 18 6 3 7 20 19 18 15 7 2 4 2 3 3 3 2 5 2 4 4 8 6 7 2 4 6 6 4 3 9 10
22 23 23 23 23 24 24 23 23 23 22 20 18 17 16 2 2 6 21 18 14 10 8 6 5 4 3 4 5 4 4 4 7 8 8 8 7 5 8 11 7 4 5 12 15
22 23 24 24 25 25 24 24 24 25 22 18 15 14 5 8 4 9 19 14 7 8 7 5 7 3 3 5 7 3 5 9 12 9 8 9 8 10 5 10 10 4 6 12 13
22 23 25 26 26 27 26 26 26 23 15 11 12 6 4 9 7 9 10 9 8 4 6 6 3 1 1 2 1 5 6 9 6 13 7 12 19 4 7 5 9 7 10 11 15
23 24 25 26 27 27 27 27 24 16 10 6 10 4 15 4 5 9 8 6 7 2 2 1 2 5 3 6 5 6 6 6 5 10 6 8 8 8 11 5 11 10 10 12 16
23 23 24 26 27 26 27 29 16 13 9 7 7 3 6 3 7 12 10 10 10 5 2 3 2 5 7 7 7 6 4 7 5 21 6 11 6 10 10 11 15 13 9 9 14
22 22 24 26 27 27 30 20 13 8 10 6 7 5 3 10 11 9 6 10 8 7 9 3 5 6 9 4 5 10 5 9 12 17 16 9 17 10 25 19 16 15 15 9 11
22 25 24 25 26 26 27 7 10 12 9 3 4 6 7 6 6 7 8 6 5 9 7 11 8 6 10 12 5 10 6 6 12 12 19 21 31 15 13 18 19 18 18 16 11
24 23 24 24 22 25 19 5 9 10 12 5 2 2 4 8 1 8 7 4 6 6 6 7 13 10 6 4 2 5 5 12 11 10 15 10 30 24 18 20 21 22 19 19 16
25 24 24 23 18 17 15 9 5 4 5 4 2 3 4 2 5 12 8 7 12 12 6 6 14 3 5 6 5 5 8 7 12 15 16 12 36 32 23 30 26 26 25 21 16
26 24 24 22 10 6 8 7 3 0 3 6 4 5 5 5 5 11 8 5 7 9 9 7 2 7 8 5 15 9 7 9 16 18 10 14 20 14 10 19 20 24 26 20 21
26 25 22 20 6 5 3 8 5 3 7 9 8 8 10 6 6 4 8 5 9 5 5 4 4 9 9 5 9 10 4 10 17 15 6 13 16 18 9 19 22 10 14 16 16
26 24 18 10 2 3 7 8 3 5 7 10 6 6 8 8 6 10 6 7 5 5 8 6 7 9 6 7 5 9 6 15 17 16 11 2 6 13 14 16 17 12 10 12 13
26 20 14 4 3 3 9 4 5 9 2 7 5 7 9 8 7 8 9 7 2 5 8 7 3 0 2 7 9 12 11 17 15 5 2 7 9 10 6 9 17 13 16 11 12
27 15 7 3 6 11 5 5 8 9 6 7 5 6 5 7 8 9 8 10 8 8 9 6 7 6 1 12 8 8 7 7 8 3 5 10 13 17 21 24 22 24 23 21 19
24 10 7 1 5 6 4 8 13 3 3 2 4 4 5 9 6 10 8 7 7 5 2 4 10 7 11 3 5 8 1 2 6 7 16 14 10 7 12 23 25 28 22 25 23
14 5 4 9 9 3 7 10 5 3 5 6 5 6 6 6 3 8 6 3 3 7 3 3 3 17 10 7 0 3 1 6 10 14 10 7 9 16 20 19 15 17 17 17 19
3 4 6 15 8 6 9 7 3 2 5 4 2 3 4 6 6 7 4 4 5 3 3 5 6 7 10 4 5 3 9 5 3 7 12 10 13 13 16 23 28 16 20 26 28
5 5 6 16 6 9 6 2 3 4 6 3 2 2 1 1 1 3 4 6 1 6 2 3 3 6 7 3 14 4 1 2 4 6 8 8 10 16 22 20 22 25 19 26 25
4 6 7 7 8 2 3 1 9 7 5 4 3 1 1 2 3 2 3 5 3 4 5 2 4 3 10 19 9 6 6 2 3 9 11 14 16 16 18 35 31 25 23 26 25
4 2 5 6 6 5 7 5 1 5 4 4 3 2 1 2 6 5 4 8 3 1 2 3 2 5 10 8 7 2 4 9 10 12 19 13 11 20 22 24 31 29 25 21 15
4 5 6 6 1 5 3 4 6 4 3 3 4 2 3 3 5 4 4 6 5 6 13 10 3 8 10 14 15 19 20 15 14 10 14 15 22 24 24 31 39 27 22 18 12
4 3 4 4 5 2 1 2 3 4 2 2 6 0 2 5 3 6 5 6 8 15 5 6 6 6 10 18 19 19 24 21 14 20 12 15 22 22 25 30 31 23 15 14 12
4 4 4 1 1 3 4 4 2 4 2 6 4 8 6 6 10 20 18 14 12 4 3 2 10 5 13 17 15 14 17 23 17 13 11 13 18 16 24 27 20 17 21 15 15
0 1 5 4 2 4 4 4 6 7 7 9 5 12 13 15 10 10 14 16 16 14 15 7 7 2 22 6 7 12 10 5 12 13 2 9 14 18 24 30 21 25 21 20 17
Wind_Direction
8 6 5 359 357 354 350 348 348 345 344 345 344 345 345 344 339 38 35 347 344 340 335 314 348 351 43 350 10 132 73 210 246 183 245 354 16 321 295 318 12 15 77 300 135
5 5 360 359 352 352 347 344 342 340 339 339 339 339 339 338 0 45 352 351 352 351 348 352 339 347 10 338 347 111 150 214 212 223 297 319 335 339 341 348 315 317 14 90 141
4 0 358 355 353 349 346 343 339 337 336 336 337 335 334 345 76 358 343 345 350 353 326 270 286 286 4 330 9 28 211 241 296 311 345 323 322 250 317 301 234 286 146 161 165
4 1 354 355 350 347 345 342 338 334 335 333 335 336 335 30 27 303 339 347 347 350 3 354 8 35 27 337 358 0 307 18 304 351 337 308 304 266 197 234 265 307 186 178 188
3 358 354 352 350 345 341 340 334 329 326 328 338 334 11 50 17 301 331 342 351 351 12 18 39 22 24 338 337 191 347 330 318 308 289 282 260 258 266 270 277 266 175 200 203
0 360 354 349 348 343 340 339 334 328 330 343 344 11 53 77 271 311 319 323 356 8 358 19 45 264 293 296 65 323 291 291 287 290 262 266 273 163 284 279 248 237 224 215 212
0 358 353 348 346 341 337 337 334 335 356 14 4 39 68 141 323 309 334 307 321 319 346 343 351 57 346 333 350 287 310 321 309 352 290 310 273 231 245 295 269 251 234 226 222
2 355 353 348 344 338 339 335 332 347 334 336 359 43 86 311 311 356 337 339 356 348 242 289 151 95 34 308 357 0 47 360 350 10 348 359 277 316 0 351 309 298 276 237 240
359 358 354 351 346 345 340 332 350 28 43 22 36 70 44 324 10 327 9 340 337 335 19 44 69 69 9 17 33 34 336 341 327 343 342 21 294 294 315 313 299 292 290 265 246
354 354 355 352 348 353 346 345 344 29 357 8 66 46 5 313 316 334 321 360 1 341 22 25 53 67 23 32 25 322 320 297 301 324 304 300 283 286 295 298 292 290 283 279 254
359 351 351 352 356 9 2 19 12 358 34 70 273 88 271 296 27 342 327 351 359 49 52 11 63 40 2 32 285 259 272 295 288 288 323 313 295 287 286 277 282 280 278 273 266
354 352 350 348 349 24 31 59 43 226 330 330 248 279 251 268 15 358 4 46 33 37 8 54 54 360 351 5 5 351 309 307 305 337 325 308 286 285 273 265 256 263 263 264 273
354 349 346 341 351 28 52 40 327 216 88 325 311 353 347 359 42 346 16 14 56 33 26 76 184 359 6 354 7 347 329 329 309 322 257 297 278 273 290 259 263 248 257 254 255
352 351 345 341 47 325 39 330 330 112 76 342 354 0 345 339 25 357 353 33 21 53 31 69 319 5 351 1 9 329 355 322 313 326 317 47 292 299 259 264 266 277 259 268 258
352 352 356 31 305 34 319 316 326 55 65 321 355 316 335 65 301 337 340 17 48 12 66 307 326 347 347 347 3 275 296 302 289 279 300 207 253 273 323 302 305 301 275 261 252
352 354 356 13 28 326 310 330 40 46 298 346 5 352 16 12 2 321 8 20 70 43 37 314 287 149 300 330 310 285 305 286 274 241 261 254 210 283 306 328 316 322 316 289 283
354 1 29 11 329 316 335 45 46 80 289 356 334 354 17 359 351 6 356 25 40 31 357 338 328 344 268 338 311 351 357 339 356 11 229 275 273 261 292 275 283 283 290 291 290
354 7 344 14 312 328 46 52 64 259 308 321 341 359 49 4 351 343 5 14 36 69 355 55 338 0 325 264 271 306 187 174 295 309 293 297 260 251 294 291 285 288 287 286 282
358 337 3 335 338 29 69 51 161 228 349 340 3 40 346 6 52 4 9 315 61 41 109 4 238 307 302 317 344 340 233 253 269 264 268 242 263 284 273 285 316 305 305 308 302
50 1 351 335 343 48 65 92 59 348 329 355 75 116 3 339 24 18 341 293 345 74 124 268 300 274 317 293 255 38 304 332 325 297 289 297 307 298 300 311 315 324 329 318 313
45 44 292 339 30 41 76 198 310 357 352 52 6 1 156 300 343 298 272 297 31 328 338 199 175 290 339 282 297 307 323 257 263 252 307 313 298 278 303 320 327 319 321 308 300
65 45 306 353 48 36 45 273 341 351 349 10 99 155 311 175 289 305 267 237 12 345 316 309 209 273 278 289 282 176 307 80 344 307 273 270 262 289 331 326 316 309 320 297 288
76 231 322 43 67 358 321 337 320 347 329 339 297 205 30 342 305 186 248 265 269 51 234 306 278 331 339 348 345 27 265 304 301 273 265 273 282 339 316 321 311 304 302 306 295
73 27 334 38 37 118 35 312 330 299 286 292 311 63 32 305 231 279 264 283 318 216 276 294 258 186 268 270 287 294 291 292 288 280 284 264 296 319 324 324 320 303 300 289 303
35 263 179 323 333 28 126 171 313 338 309 27 341 312 180 290 285 242 257 277 279 282 288 163 253 242 249 268 278 277 283 289 283 269 267 309 315 323 325 323 322 325 302 295 324
103 88 352 232 290 48 346 279 230 294 157 290 212 286 301 240 243 282 282 277 264 266 185 302 266 263 269 277 284 283 281 278 263 269 278 306 308 336 318 332 324 349 327 340 333
253 352 105 280 48 77 235 232 281 331 280 221 253 308 295 278 276 270 262 259 250 258 259 245 261 271 279 266 323 284 246 254 300 288 296 314 318 324 338 333 329 349 337 336 349